TimeCST,TemperatureF,Dew PointF,Humidity,Sea Level PressureIn,VisibilityMPH,Wind Direction,Wind SpeedMPH,Gust SpeedMPH,PrecipitationIn,Events,Conditions,WindDirDegrees,DateUTC
12:52 AM,19.0,-8.0,30,30.48,10.0,North,15.0,-,N/A,,Overcast,360,2013-11-11 06:52:00
1:52 AM,18.0,-2.0,41,30.50,10.0,North,12.7,-,N/A,,Mostly Cloudy,10,2013-11-11 07:52:00
2:52 AM,16.0,-0.9,47,30.53,10.0,North,11.5,-,N/A,,Mostly Cloudy,360,2013-11-11 08:52:00
3:52 AM,14.0,-0.0,54,30.56,10.0,North,13.8,-,N/A,,Clear,360,2013-11-11 09:52:00
4:52 AM,12.0,-0.9,56,30.60,10.0,North,11.5,-,N/A,,Clear,10,2013-11-11 10:52:00
5:52 AM,10.0,-0.0,64,30.64,10.0,North,12.7,-,N/A,,Partly Cloudy,350,2013-11-11 11:52:00
6:52 AM,9.0,1.0,70,30.67,10.0,North,6.9,-,N/A,,Clear,350,2013-11-11 12:52:00
7:52 AM,8.1,1.0,73,30.71,10.0,North,10.4,-,N/A,,Clear,360,2013-11-11 13:52:00
8:52 AM,9.0,1.0,70,30.74,10.0,North,11.5,-,N/A,,Clear,350,2013-11-11 14:52:00
9:52 AM,10.9,-0.9,59,30.76,10.0,North,6.9,-,N/A,,Clear,360,2013-11-11 15:52:00
10:52 AM,14.0,-0.9,52,30.76,10.0,North,8.1,-,N/A,,Clear,350,2013-11-11 16:52:00
11:52 AM,16.0,-2.9,43,30.77,10.0,North,6.9,-,N/A,,Clear,360,2013-11-11 17:52:00
12:52 PM,19.9,-2.9,37,30.76,10.0,WNW,6.9,-,N/A,,Clear,300,2013-11-11 18:52:00
1:52 PM,21.0,-5.1,32,30.76,10.0,Calm,Calm,-,N/A,,Clear,0,2013-11-11 19:52:00
2:52 PM,23.0,-5.1,29,30.76,10.0,Variable,5.8,-,N/A,,Clear,0,2013-11-11 20:52:00
3:52 PM,23.0,-4.0,31,30.75,10.0,NW,4.6,-,N/A,,Clear,310,2013-11-11 21:52:00
4:52 PM,21.0,-4.0,33,30.77,10.0,WNW,3.5,-,N/A,,Clear,290,2013-11-11 22:52:00
5:52 PM,16.0,-2.9,43,30.79,10.0,Calm,Calm,-,N/A,,Clear,0,2013-11-11 23:52:00
6:52 PM,12.9,-2.0,51,30.82,10.0,ESE,3.5,-,N/A,,Clear,110,2013-11-12 00:52:00
7:52 PM,9.0,1.0,70,30.82,10.0,ESE,3.5,-,N/A,,Clear,110,2013-11-12 01:52:00
8:52 PM,10.0,1.0,67,30.81,10.0,ESE,3.5,-,N/A,,Clear,110,2013-11-12 02:52:00
9:52 PM,9.0,1.0,70,30.82,10.0,Calm,Calm,-,N/A,,Clear,0,2013-11-12 03:52:00
10:52 PM,10.0,1.9,70,30.81,10.0,Calm,Calm,-,N/A,,Clear,0,2013-11-12 04:52:00
11:52 PM,10.0,1.9,70,30.81,10.0,Calm,Calm,-,N/A,,Clear,0,2013-11-12 05:52:00